Flag for South Africa Weather past 2 weeks in Port Elizabeth, South Africa

Now
66 °F

Sunny.


Feels Like: 66 °F
Forecast: 57 / 79 °F
Wind: 15 mph from Northeast

Location: Port Elizabeth Airport


UV Index: 3 (Moderate)

Visibility: 10 mi


Pressure: 30.12 "Hg

Humidity: 60%

Dew point: 52 °F

Location of Port ElizabethLocation

Historic Weather in Port Elizabeth

°F

Port Elizabeth temperature yesterday

Maximum temperature yesterday: 70 °F (at 12:00 PM)
Minimum temperature yesterday: 48 °F (at 5:00 AM)
Average temperature yesterday: 60 °F

Past Weeks' High & Low Weather Summary

 TemperatureHumidityPressure
High88 °F (Apr 14, 11:00 AM)94% (Apr 4, 6:00 AM)30.39 "Hg (Apr 4, 6:00 AM)
Low48 °F (Apr 12, 7:00 AM)29% (Apr 14, 11:00 AM)29.77 "Hg (Apr 2, 2:00 PM)
Average65 °F75%30.15 "Hg
* Reported Apr 2 9:00 AM — Apr 17 9:00 AM, Port Elizabeth, Weather by CustomWeather, © 2014

Note: Actual official high and low records may vary slightly from our data, if they occured in-between our weather recording intervals... More about our weather records

Advertising

Historic Weather Conditions — Data for Previous 24 hours

 ConditionsComfort  
Time TempWeatherWind HumidityBarometerVisibility
9:00 AM
Apr 17
61 °FSunny.10 mph77%30.12 "Hg10 mi
8:00 AM59 °FSunny.6 mph77%30.12 "Hg10 mi
7:00 AM52 °FSunny.3 mph88%30.12 "Hg10 mi
6:00 AM50 °FSunny.3 mph88%30.15 "Hg10 mi
5:00 AM50 °FClear.1 mph94%30.15 "Hg10 mi
4:00 AM50 °FClear.2 mph94%30.18 "Hg10 mi
3:00 AM52 °FClear.2 mph88%30.18 "Hg10 mi
2:00 AM52 °FClear.2 mph94%30.21 "Hg10 mi
1:00 AM54 °FClear.1 mph88%30.24 "Hg10 mi
12:00 AM57 °FClear.3 mph88%30.24 "Hg10 mi
11:00 PM
Apr 16
55 °FClear.3 mph82%30.27 "Hg10 mi
10:00 PM54 °FClear.No wind77%30.27 "Hg10 mi
9:00 PM59 °FClear.5 mph72%30.30 "Hg10 mi
8:00 PM59 °FClear.3 mph72%30.30 "Hg10 mi
7:00 PM61 °FClear.3 mph72%30.27 "Hg10 mi
6:00 PM63 °FClear.5 mph68%30.27 "Hg10 mi
5:00 PM66 °FPassing clouds.8 mph56%30.27 "HgN/A
4:00 PM68 °FPassing clouds.10 mph49%30.27 "HgN/A
3:00 PM68 °FPassing clouds.10 mph49%30.27 "HgN/A
2:00 PM68 °FPassing clouds.9 mph49%30.27 "HgN/A
1:00 PM70 °FPassing clouds.8 mph50%30.30 "HgN/A
12:00 PM70 °FPassing clouds.7 mph50%30.33 "HgN/A
11:00 AM68 °FPassing clouds.8 mph53%30.33 "HgN/A
Weather by CustomWeather, © 2014

See weather overview